When you browse on this site, cookies collect data to enhance your experience and personalize the content and advertising you see.
Visit our Privacy Policy to learn more. By continuing to use the site, you agree to this use of cookies and data.
  • In United Kingdom
  • List of Countries
  • For 7 days
  • Water Temperature
  • Satellite Maps
  • Weather Map
  • Weather Widgets
  • user-avatar
    Login

    Hourly Weather Mardan

    Today, 18 July, Thursday

    Time Temperature Precipitation Wind Pressure Humidity
    00:00 +35°C° 0 mm 2 mps 725 mmHg 53%
    01:00 +34°C° 0 mm 2 mps 725 mmHg 54%
    02:00 +34°C° 0 mm 2 mps 724 mmHg 55%
    03:00 +34°C° 0.2 mm 2 mps 724 mmHg 56%
    04:00 +32°C° 0.2 mm 2 mps 724 mmHg 58%
    05:00 +32°C° 0 mm 2 mps 724 mmHg 57%
    06:00 +34°C° 0.5 mm 2 mps 725 mmHg 55%
    07:00 +35°C° 0.5 mm 2 mps 725 mmHg 53%
    08:00 +35°C° 0.5 mm 3 mps 725 mmHg 51%
    09:00 +36°C° 0.3 mm 3 mps 725 mmHg 48%
    10:00 +37°C° 0.3 mm 3 mps 725 mmHg 45%
    11:00 +38°C° 0.3 mm 3 mps 725 mmHg 43%
    12:00 +39°C° 0.2 mm 3 mps 725 mmHg 42%
    13:00 +39°C° 0.2 mm 2 mps 724 mmHg 41%
    14:00 +39°C° 0.2 mm 2 mps 724 mmHg 40%
    15:00 +39°C° 0 mm 2 mps 724 mmHg 40%
    16:00 +39°C° 0 mm 3 mps 724 mmHg 40%
    17:00 +39°C° 0 mm 3 mps 723 mmHg 40%
    18:00 +38°C° 0 mm 3 mps 724 mmHg 42%
    19:00 +37°C° 0 mm 3 mps 724 mmHg 45%
    20:00 +37°C° 0 mm 4 mps 724 mmHg 48%
    21:00 +36°C° 0 mm 3 mps 724 mmHg 50%
    22:00 +35°C° 0 mm 2 mps 724 mmHg 52%
    23:00 +35°C° 0 mm 2 mps 725 mmHg 54%

    Tomorrow, 19 July, Friday

    Time Temperature Precipitation Wind Pressure Humidity
    00:00 +34°C° 0.5 mm 2 mps 724 mmHg 56%
    01:00 +34°C° 0.5 mm 2 mps 724 mmHg 58%
    02:00 +33°C° 0.5 mm 1 mps 724 mmHg 60%
    03:00 +32°C° 1.9 mm 1 mps 724 mmHg 64%
    04:00 +31°C° 1.9 mm 1 mps 724 mmHg 68%
    05:00 +30°C° 1.9 mm 1 mps 724 mmHg 72%
    06:00 +31°C° 1.4 mm 2 mps 725 mmHg 69%
    07:00 +31°C° 1.4 mm 2 mps 725 mmHg 67%
    08:00 +32°C° 1.4 mm 2 mps 725 mmHg 65%
    09:00 +34°C° 0.2 mm 2 mps 725 mmHg 60%
    10:00 +35°C° 0.2 mm 2 mps 725 mmHg 56%
    11:00 +37°C° 0.2 mm 2 mps 726 mmHg 51%
    12:00 +38°C° 0.1 mm 2 mps 725 mmHg 48%
    13:00 +39°C° 0.1 mm 3 mps 725 mmHg 45%
    14:00 +40°C° 0.1 mm 3 mps 725 mmHg 42%
    15:00 +40°C° 0 mm 3 mps 725 mmHg 41%
    16:00 +40°C° 0 mm 3 mps 725 mmHg 41%
    17:00 +40°C° 0 mm 3 mps 724 mmHg 40%
    18:00 +39°C° 0 mm 3 mps 725 mmHg 42%
    19:00 +38°C° 0 mm 2 mps 725 mmHg 45%
    20:00 +37°C° 0 mm 2 mps 725 mmHg 47%
    21:00 +36°C° 0.1 mm 2 mps 725 mmHg 49%
    22:00 +36°C° 0.1 mm 2 mps 725 mmHg 51%
    23:00 +35°C° 0.1 mm 2 mps 725 mmHg 52%

    Day after tomorrow, 20 July, Saturday

    Time Temperature Precipitation Wind Pressure Humidity
    00:00 +35°C° 0.1 mm 2 mps 726 mmHg 54%
    01:00 +34°C° 0.1 mm 1 mps 726 mmHg 56%
    02:00 +33°C° 0.1 mm 1 mps 726 mmHg 57%
    03:00 +32°C° 1.2 mm 1 mps 726 mmHg 61%
    04:00 +31°C° 1.2 mm 1 mps 726 mmHg 65%
    05:00 +31°C° 1.2 mm 1 mps 726 mmHg 69%
    06:00 +32°C° 0.2 mm 1 mps 726 mmHg 65%
    07:00 +33°C° 0.2 mm 1 mps 726 mmHg 61%
    08:00 +32°C° 0.2 mm 0 mps 726 mmHg 56%
    09:00 +35°C° 0 mm 1 mps 726 mmHg 53%
    10:00 +36°C° 0 mm 1 mps 726 mmHg 49%
    11:00 +38°C° 0 mm 2 mps 726 mmHg 45%
    12:00 +39°C° 0 mm 2 mps 726 mmHg 42%
    13:00 +40°C° 0 mm 2 mps 726 mmHg 39%
    14:00 +41°C° 0 mm 2 mps 725 mmHg 36%
    15:00 +41°C° 0 mm 2 mps 725 mmHg 36%
    16:00 +41°C° 0 mm 2 mps 725 mmHg 35%
    17:00 +42°C° 0 mm 2 mps 724 mmHg 34%
    18:00 +41°C° 0 mm 2 mps 724 mmHg 36%
    19:00 +40°C° 0 mm 2 mps 724 mmHg 39%
    20:00 +38°C° 0 mm 2 mps 725 mmHg 41%
    21:00 +38°C° 0.1 mm 2 mps 725 mmHg 43%
    22:00 +37°C° 0.1 mm 2 mps 725 mmHg 44%
    23:00 +37°C° 0.1 mm 2 mps 725 mmHg 46%

    21 July, Sunday

    Time Temperature Precipitation Wind Pressure Humidity
    00:00 +36°C° 0.5 mm 2 mps 724 mmHg 48%
    01:00 +36°C° 0.5 mm 2 mps 724 mmHg 51%
    02:00 +35°C° 0.5 mm 2 mps 724 mmHg 53%
    03:00 +34°C° 0.1 mm 1 mps 724 mmHg 54%
    04:00 +34°C° 0.1 mm 1 mps 724 mmHg 55%
    05:00 +34°C° 0.1 mm 1 mps 724 mmHg 56%
    06:00 +34°C° 0.1 mm 1 mps 724 mmHg 54%
    07:00 +35°C° 0.1 mm 1 mps 724 mmHg 51%
    08:00 +36°C° 0.1 mm 1 mps 724 mmHg 49%
    09:00 +38°C° 0 mm 2 mps 724 mmHg 46%
    10:00 +39°C° 0 mm 2 mps 724 mmHg 43%
    11:00 +40°C° 0 mm 2 mps 725 mmHg 40%
    12:00 +41°C° 0 mm 2 mps 724 mmHg 38%
    13:00 +42°C° 0 mm 2 mps 724 mmHg 37%
    14:00 +43°C° 0 mm 2 mps 723 mmHg 35%
    15:00 +43°C° 0 mm 2 mps 723 mmHg 34%
    16:00 +43°C° 0 mm 2 mps 722 mmHg 33%
    17:00 +43°C° 0 mm 2 mps 722 mmHg 32%
    18:00 +43°C° 0 mm 3 mps 722 mmHg 35%
    19:00 +42°C° 0 mm 3 mps 722 mmHg 38%
    20:00 +39°C° 0 mm 3 mps 722 mmHg 41%
    21:00 +39°C° 0 mm 3 mps 722 mmHg 43%
    22:00 +38°C° 0 mm 3 mps 723 mmHg 45%
    23:00 +38°C° 0 mm 2 mps 723 mmHg 47%

    22 July, Monday

    Time Temperature Precipitation Wind Pressure Humidity
    00:00 +37°C° 0 mm 2 mps 723 mmHg 48%
    01:00 +37°C° 0 mm 2 mps 722 mmHg 49%
    02:00 +36°C° 0 mm 1 mps 722 mmHg 51%
    03:00 +36°C° 0 mm 2 mps 722 mmHg 52%
    04:00 +36°C° 0 mm 2 mps 722 mmHg 53%
    05:00 +36°C° 0 mm 2 mps 722 mmHg 54%
    06:00 +36°C° 0 mm 2 mps 723 mmHg 52%
    07:00 +37°C° 0 mm 2 mps 723 mmHg 50%
    08:00 +38°C° 0 mm 2 mps 723 mmHg 48%
    09:00 +39°C° 0 mm 2 mps 723 mmHg 44%
    10:00 +40°C° 0 mm 3 mps 723 mmHg 41%
    11:00 +42°C° 0 mm 3 mps 723 mmHg 37%
    12:00 +43°C° 0 mm 3 mps 723 mmHg 35%
    13:00 +44°C° 0 mm 3 mps 722 mmHg 33%
    14:00 +45°C° 0 mm 3 mps 722 mmHg 31%
    15:00 +45°C° 0 mm 3 mps 721 mmHg 31%
    16:00 +45°C° 0 mm 3 mps 721 mmHg 30%
    17:00 +45°C° 0 mm 3 mps 721 mmHg 29%
    18:00 +44°C° 0 mm 3 mps 721 mmHg 32%
    19:00 +42°C° 0 mm 3 mps 721 mmHg 34%
    20:00 +40°C° 0 mm 3 mps 721 mmHg 37%
    21:00 +40°C° 0 mm 2 mps 721 mmHg 39%
    22:00 +39°C° 0 mm 2 mps 721 mmHg 41%
    23:00 +38°C° 0 mm 2 mps 722 mmHg 43%

    23 July, Tuesday

    Time Temperature Precipitation Wind Pressure Humidity
    00:00 +38°C° 0 mm 2 mps 721 mmHg 44%
    01:00 +38°C° 0 mm 2 mps 721 mmHg 45%
    02:00 +36°C° 0 mm 1 mps 721 mmHg 47%
    03:00 +37°C° 0 mm 2 mps 721 mmHg 48%
    04:00 +36°C° 0 mm 2 mps 721 mmHg 49%
    05:00 +36°C° 0 mm 2 mps 721 mmHg 51%
    06:00 +37°C° 0 mm 2 mps 722 mmHg 48%
    07:00 +38°C° 0 mm 2 mps 722 mmHg 45%
    08:00 +39°C° 0 mm 1 mps 723 mmHg 43%
    09:00 +40°C° 0 mm 2 mps 722 mmHg 39%
    10:00 +41°C° 0 mm 2 mps 722 mmHg 36%
    11:00 +44°C° 0 mm 3 mps 722 mmHg 33%
    12:00 +43°C° 0 mm 2 mps 722 mmHg 30%
    13:00 +45°C° 0 mm 2 mps 722 mmHg 28%
    14:00 +46°C° 0 mm 2 mps 721 mmHg 26%
    15:00 +46°C° 0 mm 2 mps 721 mmHg 25%
    16:00 +46°C° 0 mm 2 mps 721 mmHg 24%
    17:00 +46°C° 0 mm 1 mps 720 mmHg 22%
    18:00 +45°C° 0 mm 2 mps 720 mmHg 25%
    19:00 +43°C° 0 mm 2 mps 720 mmHg 27%
    20:00 +42°C° 0 mm 2 mps 720 mmHg 29%
    21:00 +42°C° 0 mm 3 mps 721 mmHg 31%
    22:00 +40°C° 0 mm 3 mps 721 mmHg 34%
    23:00 +39°C° 0 mm 3 mps 721 mmHg 36%
    Show more